Wind_Speed
32 32 32 32 33 33 32 32 32 33 33 34 34 34 33 33 32 33 32 31 31 30 30 29 28 27 26 26 25 23 23 22 20 20 19 19 19 19 18 18 17 17 16
32 31 30 30 30 31 31 31 31 31 31 31 32 32 32 32 31 32 34 32 32 32 32 32 31 31 30 30 28 27 26 25 23 23 22 21 21 21 20 20 19 18 18
31 30 29 29 29 28 28 29 29 29 28 28 27 28 30 31 31 31 33 34 33 33 34 34 33 33 32 31 30 30 30 28 26 25 25 24 23 23 23 22 20 20 19
29 29 28 28 28 27 27 27 27 27 27 26 25 25 27 28 30 30 30 31 32 32 33 33 33 33 33 33 31 31 31 30 28 27 26 26 26 25 24 24 23 22 21
29 28 27 26 26 26 26 26 25 25 25 25 24 24 25 26 27 28 29 29 29 30 30 31 32 33 32 31 32 32 32 31 30 29 28 28 27 26 26 26 25 24 23
28 27 26 25 25 25 24 24 24 24 24 24 24 23 24 24 24 24 26 27 26 27 27 28 29 31 31 31 33 33 33 32 31 30 28 28 28 28 27 27 27 26 25
27 26 25 25 24 24 23 23 23 23 23 23 23 23 23 24 24 24 24 25 26 26 26 26 27 28 29 29 30 33 34 34 33 31 30 29 29 29 29 29 28 28 28
26 26 25 25 25 24 24 24 24 23 23 24 24 24 24 24 25 25 25 24 25 25 25 26 26 26 27 28 28 30 33 34 34 33 32 31 30 30 30 30 30 30 29
26 26 26 26 25 25 25 25 25 25 25 25 26 25 25 25 25 25 25 25 25 25 25 25 25 25 27 28 29 30 31 34 34 34 33 33 31 30 31 32 32 32 31
26 27 27 27 27 27 27 27 27 27 26 26 27 27 27 26 26 24 25 25 26 26 26 26 26 25 26 27 27 29 31 34 33 33 34 33 32 31 30 32 32 32 33
29 28 29 29 29 29 29 29 29 29 28 28 28 28 28 27 28 26 25 26 26 26 27 27 27 26 26 27 28 28 30 32 32 33 33 33 32 31 31 31 31 32 33
32 31 31 31 31 32 32 32 31 31 31 30 30 29 29 29 29 29 27 26 27 27 28 28 29 29 28 27 27 28 29 30 32 32 33 34 33 32 31 31 32 32 32
34 34 34 33 33 34 34 34 33 33 32 32 31 31 30 30 30 30 29 28 28 28 29 29 29 30 29 27 28 30 29 30 32 32 32 33 34 33 32 32 32 32 33
37 37 37 36 36 36 36 36 35 35 34 34 33 32 32 31 31 31 30 29 29 28 29 30 30 30 30 29 29 29 29 29 31 32 32 33 33 33 33 33 33 33 33
41 40 40 39 39 38 38 38 37 37 36 35 34 33 33 32 32 31 31 31 30 29 29 30 31 31 31 30 30 30 30 30 30 29 30 31 32 33 33 33 33 33 34
45 43 43 42 41 41 40 39 39 38 38 37 35 35 34 33 33 33 32 32 32 31 30 30 31 31 32 31 30 30 31 32 31 30 29 30 31 31 32 33 33 33 34
50 48 46 45 44 43 42 41 40 39 39 38 37 36 36 35 34 34 33 33 33 33 31 29 30 31 31 31 31 31 30 31 31 30 30 30 29 30 31 32 32 32 33
55 54 51 49 47 46 45 43 42 41 40 39 38 37 37 36 35 34 34 33 33 33 31 29 29 30 31 31 31 31 30 30 29 30 29 29 29 30 31 31 31 32 33
60 59 56 54 52 50 47 45 44 43 42 40 39 38 38 37 36 35 34 33 32 32 31 29 28 29 29 30 30 30 30 29 30 29 28 29 29 30 30 30 30 30 31
64 63 62 59 56 54 51 48 47 45 43 41 40 39 39 38 37 36 35 34 32 31 30 29 28 28 27 28 28 29 29 28 28 28 28 28 28 29 28 28 29 29 30
67 66 65 63 60 57 54 52 49 46 45 43 42 41 40 39 37 37 35 34 32 31 30 29 28 27 27 27 27 28 28 28 28 28 28 28 28 28 28 28 29 30 30
65 66 66 64 62 60 58 55 52 50 47 45 43 42 40 38 37 36 35 34 32 30 29 28 28 27 27 27 27 27 27 28 28 28 28 28 28 28 28 28 28 29 29
59 61 62 62 61 60 59 56 53 51 49 47 45 42 40 38 37 35 34 33 31 30 29 28 27 26 26 26 26 26 26 26 26 26 26 28 28 27 27 27 27 27 27
49 51 54 56 56 56 55 54 52 51 49 47 45 43 40 38 36 35 33 32 30 29 28 28 26 25 25 25 25 25 25 25 25 25 25 24 25 26 26 24 23 23 22
37 39 42 44 46 48 49 49 49 48 47 46 44 42 40 37 36 34 32 30 28 27 26 25 23 24 24 23 23 23 23 23 22 23 23 23 24 24 23 22 21 21 21
30 31 32 35 37 39 42 44 46 46 44 43 43 41 39 36 34 32 30 28 26 25 25 24 22 22 23 22 22 22 22 21 20 21 21 21 21 22 21 21 20 20 19
Wind_Direction
292 291 291 290 289 288 287 285 285 284 282 280 278 277 274 270 269 269 266 264 264 266 268 267 265 263 262 260 257 256 256 257 254 250 248 246 245 244 244 242 242 241 240
292 291 291 290 289 288 287 287 286 285 287 287 282 277 277 274 273 272 267 265 264 265 266 265 264 262 260 259 257 256 254 253 253 250 249 247 247 246 244 243 243 242 240
291 289 289 288 287 287 287 287 287 288 288 289 287 284 283 279 276 276 271 267 267 265 265 265 263 261 260 258 256 255 252 251 251 250 249 246 246 246 244 243 244 243 240
289 289 289 288 287 287 287 288 289 290 290 290 291 290 288 285 281 279 275 273 272 269 266 264 263 261 259 256 255 254 252 249 248 248 249 246 246 246 244 242 243 242 241
290 288 288 288 288 288 289 290 291 291 292 293 295 296 294 292 288 284 280 278 275 275 271 264 262 259 258 259 256 253 249 247 245 245 247 245 246 245 243 242 243 242 242
287 287 286 287 287 288 290 292 293 293 294 294 296 297 298 298 296 293 288 283 280 276 272 267 264 260 259 261 257 252 247 244 243 244 244 245 244 244 243 242 242 241 242
285 285 285 285 286 287 289 291 293 295 295 295 297 299 300 299 296 294 293 289 284 280 277 272 268 264 260 260 257 253 248 243 242 243 243 243 243 243 243 241 241 241 241
284 283 283 285 286 286 287 290 292 294 296 297 298 300 301 299 297 296 292 288 285 281 275 271 268 265 262 260 256 252 247 243 241 242 242 242 243 243 242 241 241 241 241
283 282 282 283 284 285 286 289 290 292 294 296 298 300 301 300 299 298 293 288 283 281 277 271 268 266 263 260 255 251 248 245 242 242 241 242 243 242 241 242 242 242 242
282 282 282 282 282 283 285 287 288 290 291 293 295 297 299 300 300 298 294 288 282 278 275 271 267 267 264 261 257 251 246 244 242 241 241 241 242 242 243 243 242 243 242
282 281 281 281 280 281 283 284 285 286 288 290 292 294 297 299 299 299 294 288 284 278 274 271 266 265 264 259 256 251 245 241 241 241 241 240 241 241 244 243 242 243 243
281 280 279 279 278 279 280 281 282 283 285 287 289 291 294 296 298 297 294 288 284 279 274 271 267 265 264 258 252 250 246 241 241 242 242 241 241 242 243 243 242 243 243
279 279 278 278 277 277 278 278 279 280 281 283 285 288 291 294 295 295 294 290 285 279 274 271 268 266 265 261 253 250 247 243 242 241 243 242 241 242 242 242 243 243 243
276 277 277 277 276 276 276 276 276 277 278 280 281 284 288 290 292 294 293 290 286 281 275 272 269 267 264 261 255 252 246 244 242 242 244 244 242 242 243 243 244 243 242
276 274 274 275 275 275 275 275 273 273 275 276 278 281 284 287 289 291 290 289 287 281 276 272 269 267 264 260 255 251 248 246 243 243 246 246 243 243 244 244 245 243 242
275 274 273 272 272 271 272 273 272 272 273 274 275 277 281 284 286 288 288 287 286 282 277 273 270 266 264 259 253 252 250 247 245 243 245 246 246 244 244 245 246 245 245
274 273 272 271 271 270 269 269 270 270 270 271 272 275 277 281 283 284 286 286 284 282 278 273 268 265 263 259 254 250 249 247 246 245 245 245 245 245 247 245 246 246 246
273 272 271 270 270 269 267 266 266 267 268 269 271 273 275 277 280 283 285 284 282 280 278 273 269 265 261 258 255 251 248 246 246 246 246 246 245 245 247 248 248 246 247
271 271 271 269 268 268 266 265 265 265 266 267 269 270 272 275 277 280 282 282 280 278 277 273 268 265 260 255 254 251 250 247 246 246 246 247 247 247 249 248 247 249 248
269 269 269 268 267 266 265 264 263 264 265 266 267 268 270 272 274 277 279 280 279 277 274 271 267 263 258 254 252 250 249 247 245 246 246 248 249 248 247 248 248 249 250
269 268 267 266 265 264 264 263 262 262 262 264 265 266 267 269 271 274 276 277 277 274 272 268 265 261 256 254 252 249 248 247 247 247 247 247 247 247 248 250 248 251 252
270 268 266 264 263 262 261 261 260 259 260 261 263 263 264 266 268 271 273 274 274 272 269 266 262 258 254 252 250 248 247 246 246 245 246 245 246 248 248 248 250 252 252
270 267 265 263 261 260 258 258 257 257 257 258 259 260 261 263 265 267 270 271 271 269 266 264 260 255 252 251 248 246 245 244 245 246 246 245 244 244 247 249 251 253 252
270 267 263 260 258 257 255 254 253 253 253 254 255 256 257 259 261 264 268 268 267 265 263 261 256 251 249 247 245 244 243 242 244 244 244 244 243 243 243 244 248 250 251
274 270 264 259 255 253 251 249 247 247 248 249 250 251 253 254 257 260 264 264 261 260 259 256 251 248 245 243 241 240 240 240 240 241 240 241 241 237 237 240 243 245 249
278 274 267 260 254 251 249 245 242 241 242 243 245 246 248 249 252 255 258 258 255 254 253 251 248 244 241 239 237 236 236 234 234 236 235 235 234 233 235 238 242 244 243
Height
5868 5866 5865 5863 5862 5860 5859 5858 5857 5856 5855 5854 5853 5853 5854 5855 5856 5857 5858 5859 5861 5862 5863 5864 5865 5866 5868 5869 5871 5872 5873 5875 5876 5877 5878 5880 5881 5883 5884 5886 5887 5888 5890
5862 5860 5858 5857 5855 5853 5852 5851 5850 5849 5847 5847 5846 5846 5847 5846 5848 5849 5849 5850 5852 5854 5855 5856 5858 5859 5861 5863 5864 5866 5868 5869 5871 5873 5874 5876 5877 5879 5880 5882 5883 5885 5886
5855 5852 5851 5850 5849 5847 5846 5844 5843 5842 5841 5840 5839 5839 5839 5839 5839 5840 5841 5841 5843 5845 5847 5848 5849 5851 5853 5855 5857 5859 5861 5863 5865 5867 5869 5871 5873 5874 5876 5878 5879 5881 5883
5848 5847 5845 5844 5843 5842 5840 5839 5838 5836 5835 5834 5833 5833 5832 5832 5833 5833 5833 5833 5835 5836 5837 5838 5840 5842 5845 5847 5849 5851 5854 5856 5858 5861 5863 5865 5867 5869 5871 5873 5875 5877 5878
5843 5841 5840 5839 5838 5836 5835 5833 5832 5831 5830 5828 5827 5827 5826 5826 5826 5826 5826 5826 5827 5828 5828 5830 5832 5834 5836 5838 5840 5843 5846 5849 5851 5854 5856 5859 5861 5863 5866 5868 5870 5872 5874
5837 5835 5834 5833 5831 5830 5829 5828 5827 5825 5824 5823 5822 5822 5821 5820 5819 5820 5819 5820 5820 5820 5821 5822 5824 5826 5828 5830 5832 5834 5838 5841 5844 5847 5849 5852 5855 5857 5860 5862 5864 5867 5869
5831 5829 5828 5827 5826 5825 5824 5823 5821 5820 5819 5818 5817 5816 5816 5815 5814 5813 5813 5813 5813 5813 5814 5816 5817 5818 5819 5822 5824 5826 5829 5833 5836 5839 5842 5845 5848 5850 5853 5856 5858 5861 5863
5825 5823 5822 5821 5820 5819 5818 5817 5816 5815 5814 5812 5811 5810 5810 5810 5807 5807 5807 5806 5806 5806 5808 5809 5810 5811 5812 5814 5816 5817 5821 5824 5828 5831 5834 5837 5840 5843 5846 5849 5852 5855 5857
5818 5817 5816 5815 5814 5813 5812 5811 5810 5809 5808 5806 5805 5804 5804 5803 5802 5801 5800 5800 5800 5800 5801 5801 5803 5804 5805 5806 5808 5810 5812 5816 5820 5823 5826 5829 5832 5835 5838 5841 5845 5848 5851
5812 5811 5810 5809 5808 5807 5806 5805 5804 5802 5802 5801 5799 5798 5797 5796 5795 5795 5794 5793 5793 5793 5793 5794 5795 5796 5797 5798 5800 5802 5804 5808 5811 5815 5818 5821 5825 5828 5831 5834 5837 5840 5843
5805 5804 5803 5802 5801 5800 5799 5798 5797 5796 5795 5794 5793 5792 5790 5789 5788 5787 5788 5786 5786 5786 5786 5786 5787 5788 5789 5791 5792 5794 5796 5799 5803 5806 5810 5813 5817 5820 5823 5826 5829 5833 5836
5797 5796 5795 5794 5793 5792 5791 5791 5790 5789 5788 5787 5786 5785 5784 5782 5781 5780 5780 5779 5779 5779 5778 5779 5780 5781 5782 5782 5784 5786 5788 5791 5795 5798 5802 5806 5809 5812 5816 5819 5822 5825 5828
5787 5787 5786 5785 5785 5784 5783 5782 5781 5781 5780 5779 5778 5777 5776 5775 5773 5772 5771 5771 5771 5771 5771 5771 5771 5772 5773 5775 5776 5779 5781 5784 5787 5791 5794 5798 5801 5805 5808 5811 5814 5817 5820
5778 5777 5776 5775 5774 5774 5773 5773 5773 5772 5771 5771 5770 5769 5768 5767 5766 5764 5763 5763 5763 5763 5762 5763 5763 5764 5765 5767 5769 5771 5773 5776 5779 5783 5786 5789 5793 5797 5800 5804 5807 5810 5813
5767 5766 5765 5765 5764 5763 5763 5763 5762 5762 5762 5762 5761 5761 5760 5759 5758 5756 5755 5754 5754 5754 5755 5754 5755 5756 5757 5759 5761 5763 5766 5769 5771 5775 5778 5782 5785 5789 5792 5796 5798 5801 5805
5754 5754 5754 5753 5753 5753 5752 5752 5752 5752 5752 5752 5752 5752 5751 5750 5749 5748 5747 5746 5745 5745 5746 5747 5747 5747 5748 5750 5752 5755 5758 5761 5764 5767 5771 5774 5777 5781 5784 5787 5790 5793 5796
5739 5740 5740 5740 5740 5740 5740 5741 5741 5741 5742 5742 5742 5742 5742 5741 5741 5740 5739 5738 5737 5736 5737 5738 5738 5739 5739 5741 5743 5746 5749 5753 5756 5759 5763 5766 5769 5773 5776 5779 5782 5785 5788
5723 5724 5725 5726 5726 5727 5727 5728 5729 5730 5730 5731 5732 5732 5732 5732 5731 5731 5729 5728 5728 5727 5727 5728 5729 5730 5731 5733 5735 5738 5741 5744 5748 5751 5755 5758 5762 5765 5768 5771 5774 5777 5780
5705 5706 5708 5709 5711 5712 5714 5715 5716 5717 5719 5720 5721 5721 5722 5722 5722 5721 5720 5719 5719 5718 5718 5719 5720 5721 5722 5724 5727 5729 5732 5736 5740 5743 5747 5750 5754 5757 5760 5763 5766 5769 5772
5686 5687 5689 5691 5694 5696 5698 5700 5702 5704 5706 5708 5709 5710 5711 5711 5712 5712 5711 5711 5710 5710 5710 5711 5712 5713 5714 5716 5719 5722 5725 5729 5732 5736 5739 5743 5746 5749 5752 5756 5759 5761 5764
5664 5666 5668 5672 5675 5678 5681 5684 5687 5690 5693 5695 5697 5698 5700 5701 5701 5702 5702 5702 5702 5702 5702 5703 5704 5705 5707 5709 5712 5715 5718 5721 5725 5728 5732 5736 5739 5742 5745 5748 5751 5753 5756
5642 5643 5646 5650 5654 5658 5663 5667 5671 5675 5678 5682 5684 5686 5688 5690 5691 5692 5693 5693 5693 5694 5695 5696 5696 5698 5700 5702 5705 5708 5711 5715 5718 5721 5724 5728 5732 5735 5738 5741 5743 5745 5748
5619 5621 5624 5627 5632 5637 5643 5648 5653 5658 5663 5668 5671 5674 5677 5679 5681 5682 5683 5684 5685 5685 5687 5688 5689 5691 5693 5695 5698 5701 5704 5708 5711 5714 5717 5720 5724 5727 5730 5732 5735 5738 5740
5599 5600 5603 5606 5611 5616 5622 5629 5635 5641 5648 5653 5658 5662 5665 5668 5670 5672 5674 5675 5676 5677 5679 5680 5682 5684 5686 5688 5692 5695 5698 5701 5704 5707 5710 5713 5716 5719 5722 5725 5728 5731 5733
5583 5583 5585 5589 5593 5598 5603 5610 5617 5624 5632 5638 5644 5649 5653 5657 5660 5663 5664 5666 5668 5670 5671 5673 5675 5677 5679 5682 5685 5689 5692 5695 5697 5700 5704 5707 5710 5713 5716 5719 5722 5724 5727
5572 5572 5573 5575 5578 5582 5587 5594 5601 5609 5617 5624 5630 5637 5642 5647 5650 5653 5656 5658 5660 5662 5664 5666 5668 5671 5673 5676 5679 5683 5687 5690 5692 5695 5698 5702 5704 5708 5711 5713 5716 5718 5721